Indianapolis, IN

11:55 PM EDT on April 24, 2018 (GMT -0400)
Indianapolis International

Weather History for KIND - March, 2015

Change the Weather History Date:

Wednesday, March 11, 2015

  Actual Average Record
Temperature  
Mean Temperature 49 °F 40 °F  
Max Temperature 64 °F 50 °F 77 °F (1990)
Min Temperature 34 °F 31 °F 3 °F (1948)
Degree Days  
Heating Degree Days 16 25  
Month to date heating degree days 368 292  
Since 1 July heating degree days 5094 4435  
Cooling Degree Days 0 0  
Month to date cooling degree days 0 0  
Year to date cooling degree days 0 0  
Moisture  
Dew Point 40 °F    
Average Humidity 76    
Maximum Humidity 100    
Minimum Humidity 52    
Precipitation  
Precipitation 0.00 in 0.10 in 2.01 in (1876)
Month to date precipitation 1.28 1.12  
Year to date precipitation 4.43 6.10  
Snow  
Snow 0.00 in 0.10 in 8.10 in (2000)
Month to date snowfall 5.9 1.4  
Since 1 July snowfall 25.6 24.5  
Snow Depth 0.00 in    
Sea Level Pressure  
Sea Level Pressure 30.21 in    
Wind  
Wind Speed 6 mph (West)    
Max Wind Speed 21 mph    
Max Gust Speed 26 mph    
Visibility 3 miles    
Events Fog    
T = Trace of Precipitation, MM = Missing Value Source: NWS Daily Summary

Daily Weather History Graph

Daily Weather History Graph

Search for Another Location

Airport or City:

Astronomy

Mar. 11, 2015 Rise Set
Actual Time 8:03 AM EDT 7:47 PM EDT
Civil Twilight 7:36 AM EDT 8:14 PM EDT
Nautical Twilight 7:05 AM EDT 8:45 PM EDT
Astronomical Twilight 6:33 AM EDT 9:17 PM EDT
Moon 12:35 AM EDT (3/11) 11:11 AM EDT (3/11)
Length of Visible Light 12h 38m
Length of Day
11h 44m
Waning Gibbous, 71% of the Moon is Illuminated
Mar 11
Waning Gibbous
Mar 13
Last Quarter
Mar 20
New
Mar 27
First Quarter
Apr 4
Full

Hourly Weather History & Observations

Time (EDT) Temp. Windchill Dew Point Humidity Pressure Visibility Wind Dir Wind Speed Gust Speed Precip Events Conditions
12:36 AM 41.0 °F 39.0 °F 39.9 °F 96% 30.08 in 0.2 mi West 3.5 mph - N/A Fog Fog
12:51 AM 41.0 °F 39.0 °F 39.2 °F 93% 30.08 in 0.2 mi West 3.5 mph - N/A Fog Fog
12:54 AM 41.0 °F 38.0 °F 39.0 °F 93% 30.09 in 0.2 mi West 4.6 mph - N/A Fog Fog
1:12 AM 41.0 °F 38.0 °F 39.9 °F 96% 30.08 in 0.1 mi West 4.6 mph - N/A Fog Fog
1:54 AM 41.0 °F 38.0 °F 39.9 °F 96% 30.10 in 0.1 mi West 4.6 mph - N/A Fog Fog
2:54 AM 39.9 °F 37.8 °F 39.0 °F 97% 30.12 in 0.1 mi WSW 3.5 mph - N/A Fog Fog
3:54 AM 39.0 °F 36.8 °F 37.9 °F 96% 30.12 in 0.1 mi WSW 3.5 mph - N/A Fog Fog
4:26 AM 37.9 °F 33.5 °F 37.0 °F 97% 30.11 in 0.1 mi WSW 5.8 mph - N/A Fog Fog
4:37 AM 37.9 °F 33.5 °F 37.0 °F 97% 30.11 in 0.2 mi WSW 5.8 mph - N/A Fog Fog
4:54 AM 37.9 °F 33.5 °F 37.0 °F 97% 30.13 in 0.1 mi WSW 5.8 mph - N/A Fog Fog
5:54 AM 37.0 °F 34.5 °F 36.0 °F 96% 30.14 in 0.1 mi West 3.5 mph - N/A Fog Fog
6:54 AM 36.0 °F 33.3 °F 35.1 °F 97% 30.17 in 0.1 mi West 3.5 mph - N/A Fog Fog
7:12 AM 35.1 °F 31.0 °F 34.0 °F 96% 30.16 in 0.1 mi WSW 4.6 mph - N/A Fog Fog
7:54 AM 34.0 °F 31.0 °F 33.1 °F 96% 30.19 in 0.1 mi SW 3.5 mph - N/A Fog Fog
8:10 AM 34.0 °F - 33.1 °F 96% 30.18 in 0.1 mi Calm Calm - N/A Fog Fog
9:54 AM 36.0 °F 32.1 °F 35.1 °F 97% 30.23 in 0.1 mi SSW 4.6 mph - N/A Fog Fog
10:12 AM 36.0 °F 33.3 °F 36.0 °F 100% 30.22 in 0.1 mi SW 3.5 mph - N/A Fog Fog
10:30 AM 37.0 °F 34.5 °F 36.0 °F 96% 30.22 in 0.2 mi SW 3.5 mph - N/A Fog Fog
10:54 AM 39.0 °F 36.8 °F 37.0 °F 93% 30.25 in 0.2 mi Variable 3.5 mph - N/A Fog Fog
11:32 AM 41.0 °F 37.1 °F 39.0 °F 93% 30.23 in 0.5 mi SW 5.8 mph - N/A Fog Fog
11:52 AM 42.8 °F 40.1 °F 39.2 °F 87% 30.23 in 1.0 mi West 4.6 mph - N/A   Overcast
11:54 AM 42.1 °F 39.2 °F 39.9 °F 92% 30.25 in 1.2 mi West 4.6 mph - N/A   Overcast
12:10 PM 43.0 °F 41.3 °F 41.0 °F 93% 30.23 in 2.5 mi Variable 3.5 mph - N/A   Mostly Cloudy
12:27 PM 44.1 °F - 42.1 °F 93% 30.23 in 4.0 mi Calm Calm - N/A   Mostly Cloudy
12:42 PM 45.0 °F 43.5 °F 43.0 °F 93% 30.24 in 5.0 mi SSW 3.5 mph - N/A   Scattered Clouds
12:54 PM 46.9 °F - 44.1 °F 90% 30.25 in 5.0 mi WSW 4.6 mph - N/A   Partly Cloudy
1:54 PM 54.0 °F - 46.0 °F 75% 30.24 in 7.0 mi Calm Calm - N/A   Clear
2:54 PM 59.0 °F - 48.0 °F 67% 30.22 in 9.0 mi Variable 4.6 mph - N/A   Clear
3:54 PM 62.1 °F - 46.9 °F 58% 30.21 in 10.0 mi SW 6.9 mph - N/A   Clear
4:54 PM 64.4 °F - 46.4 °F 52% 30.22 in 10.0 mi WSW 9.2 mph - N/A   Partly Cloudy
5:54 PM 64.0 °F - 48.0 °F 56% 30.23 in 10.0 mi West 8.1 mph - N/A   Partly Cloudy
6:54 PM 54.0 °F - 46.9 °F 77% 30.26 in 6.0 mi North 15.0 mph - N/A   Haze
7:54 PM 48.9 °F - 45.0 °F 86% 30.29 in 4.0 mi NNE 9.2 mph - N/A   Partly Cloudy
8:54 PM 48.0 °F - 44.1 °F 86% 30.34 in 3.0 mi North 9.2 mph - N/A   Scattered Clouds
9:54 PM 46.0 °F 41.0 °F 42.1 °F 86% 30.37 in 3.0 mi NE 10.4 mph - N/A   Partly Cloudy
10:54 PM 44.1 °F 38.6 °F 37.9 °F 79% 30.39 in 5.0 mi NE 10.4 mph - N/A   Haze
11:54 PM 41.0 °F 35.8 °F 36.0 °F 82% 30.40 in 7.0 mi NE 8.1 mph - N/A   Partly Cloudy